CW5111 Weather Reports


time (UTC)temp
C
wind
direction
speed
KPH
gust
KPH
rain 1hr
cm
rain 24hr
cm
rain mn
cm
humidity
%
barometer
mb
20260507141504 16 183 4.8 11.3 0.00 0.00 0.00 42 1014.9
20260507140006 17 139 3.2 9.7 0.00 0.00 0.00 42 1015.0
20260507134503 16 132 4.8 16.1 0.00 0.00 0.00 46 1015.1
20260507133003 16 147 3.2 9.7 0.00 0.00 0.00 45 1015.1
20260507131504 15 131 4.8 11.3 0.00 0.00 0.00 47 1015.2
20260507130003 15 125 4.8 9.7 0.00 0.00 0.00 46 1015.3
20260507124503 16 173 4.8 12.9 0.00 0.00 0.00 44 1015.3
20260507123002 17 172 6.4 14.5 0.00 0.00 0.00 47 1015.3
20260507121502 16 122 3.2 9.7 0.00 0.00 0.00 47 1015.2
20260507120004 15 155 3.2 11.3 0.00 0.00 0.00 52 1015.5
20260507113002 15 187 4.8 12.9 0.00 0.00 0.00 53 1015.7
20260507111503 14 213 3.2 9.7 0.00 0.00 0.00 59 1015.8
20260507110003 13 190 4.8 12.9 0.00 0.00 0.00 59 1015.8
20260507104503 13 191 3.2 9.7 0.00 0.00 0.00 63 1016.0
20260507103002 12 150 3.2 8.0 0.00 0.00 0.00 65 1016.0
20260507101503 12 150 4.8 11.3 0.00 0.00 0.00 64 1016.1
20260507100004 12 121 4.8 9.7 0.00 0.00 0.00 66 1016.1
20260507094503 12 122 4.8 11.3 0.00 0.00 0.00 71 1016.0
20260507093002 12 108 4.8 9.7 0.00 0.00 0.00 73 1016.1
20260507091503 11 119 4.8 11.3 0.00 0.00 0.00 73 1016.1
20260507090004 11 129 4.8 9.7 0.00 0.00 0.00 76 1016.1
20260507084503 11 138 3.2 9.7 0.00 0.00 0.00 76 1016.1
20260507081503 10 103 3.2 8.0 0.00 0.00 0.00 79 1016.1
20260507074502 8 101 3.2 9.7 0.00 0.00 0.00 82 1016.1
20260507073004 8 131 4.8 12.9 0.00 0.00 0.00 83 1016.2
20260507071503 8 93 3.2 6.4 0.00 0.00 0.00 85 1016.1
20260507070006 7 135 3.2 8.0 0.00 0.00 0.00 86 1016.1
20260507064502 7 112 3.2 8.0 0.00 0.00 0.00 86 1016.1
20260507063003 6 129 3.2 8.0 0.00 0.00 0.00 87 1015.9
20260507060003 6 115 3.2 6.4 0.00 0.00 0.00 89 1015.9
20260507053003 5 108 3.2 4.8 0.00 0.00 0.00 90 1015.8
20260507051503 5 122 1.6 6.4 0.00 0.00 0.00 91 1015.8
20260507050003 5 115 1.6 4.8 0.00 0.00 0.00 90 1015.8
20260507043003 5 142 3.2 6.4 0.00 0.00 0.00 91 1015.8
20260507041503 5 101 1.6 8.0 0.00 0.00 0.00 90 1015.6
20260507040004 5 129 3.2 8.0 0.00 0.00 0.00 90 1015.6
20260507034503 5 104 3.2 8.0 0.00 0.00 0.00 90 1015.5
20260507030004 5 86 1.6 6.4 0.00 0.00 0.00 91 1015.8
20260507023003 5 91 3.2 8.0 0.00 0.00 0.00 91 1015.5
20260507021503 5 90 1.6 6.4 0.00 0.00 0.00 91 1015.6
20260507020004 5 100 1.6 4.8 0.00 0.00 0.00 91 1015.6
20260507014503 5 70 1.6 4.8 0.00 0.00 0.00 91 1015.6
20260507013003 5 66 1.6 3.2 0.00 0.00 0.00 91 1015.7
20260507011503 4 46 1.6 4.8 0.00 0.00 0.00 90 1015.6
20260507004503 5 0 0.0 3.2 0.00 0.00 0.00 89 1015.7
20260507003003 5 97 1.6 4.8 0.00 0.00 0.00 89 1015.8
20260507001503 5 84 1.6 6.4 0.00 0.00 0.00 89 1015.9
20260507000004 5 83 1.6 6.4 0.00 0.00 0.00 89 1016.1
20260506234503 5 72 1.6 6.4 0.00 0.00 0.00 90 1016.1
20260506233003 5 51 1.6 4.8 0.00 0.00 0.00 90 1016.0
20260506231503 5 71 1.6 6.4 0.00 0.00 0.00 91 1015.9
20260506224503 4 73 1.6 4.8 0.00 0.00 0.00 89 1016.0
20260506223003 4 54 1.6 3.2 0.00 0.00 0.00 89 1016.0
20260506221504 4 64 1.6 4.8 0.00 0.00 0.00 88 1015.9
20260506220004 5 47 1.6 4.8 0.00 0.00 0.00 88 1015.7
20260506213003 5 51 1.6 6.4 0.00 0.00 0.00 87 1015.7
20260506211503 5 65 1.6 4.8 0.00 0.00 0.00 86 1015.6
20260506210004 5 76 1.6 6.4 0.00 0.00 0.00 85 1015.5
20260506204503 6 70 1.6 4.8 0.00 0.00 0.00 84 1015.2
20260506201503 6 76 3.2 8.0 0.00 0.00 0.00 82 1015.1
20260506200003 7 71 3.2 9.7 0.00 0.00 0.00 81 1014.9
20260506194503 7 85 3.2 8.0 0.00 0.00 0.00 79 1014.8
20260506193002 8 61 3.2 9.7 0.00 0.00 0.00 77 1014.6
20260506191503 8 73 4.8 14.5 0.00 0.00 0.00 75 1014.5
20260506190004 8 50 3.2 11.3 0.00 0.00 0.00 72 1014.6
20260506184503 9 23 4.8 11.3 0.00 0.00 0.00 68 1014.6
20260506183003 9 61 4.8 11.3 0.00 0.00 0.00 69 1014.5
20260506181503 10 60 3.2 11.3 0.00 0.00 0.00 69 1014.5
20260506180004 10 79 4.8 14.5 0.00 0.00 0.00 66 1014.4
20260506174503 11 16 4.8 16.1 0.00 0.00 0.00 63 1014.3
20260506173003 11 45 4.8 11.3 0.00 0.00 0.00 64 1014.1
20260506171503 11 32 3.2 11.3 0.00 0.00 0.00 59 1014.1
20260506170004 11 36 3.2 8.0 0.00 0.00 0.00 59 1014.0
20260506164503 11 30 4.8 9.7 0.00 0.00 0.00 59 1014.0
20260506163003 11 30 3.2 12.9 0.00 0.00 0.00 58 1014.0
20260506161503 11 32 3.2 11.3 0.00 0.00 0.00 59 1014.0
20260506160004 12 37 4.8 12.9 0.00 0.00 0.00 56 1013.9
20260506154503 12 35 3.2 9.7 0.00 0.00 0.00 50 1013.8
20260506153003 12 17 4.8 14.5 0.00 0.00 0.00 50 1013.9
20260506151503 12 19 4.8 9.7 0.00 0.00 0.00 48 1013.9
20260506150004 12 355 8.0 22.5 0.00 0.00 0.00 48 1014.0
20260506144503 12 9 4.8 17.7 0.00 0.00 0.00 52 1014.1
20260506143003 13 15 4.8 11.3 0.00 0.00 0.00 48 1014.0